Location: ????????
(55.6189°N, 38.3031°E)
Time: 01:39:24
(UTC+00:00)

ATLAS 5 CENTAUR R/B - Pass Details

Date: 15 November 2019
Orbit: 284 x 14347 km, 60.8° (Epoch: 12 December)

Event Time Altitude Azimuth Distance (km) Brightness Sun altitude
Exits shadow 00:49:02 70° 207° (SSW) 1,817 4.0 -34.9°
Drops below altitude 10° 01:12:54 10° 141° (SE) 9,784 8.4 -31.6°
Sets 01:26:37 0° 142° (SE) 13,400 9.2 -29.8°
